Owensboro, KY

3:15 PM CST on December 08, 2019 (GMT -0600)
Owensboro-Daviess County

Weather History for KOWB - November, 2019

Change the Weather History Date:

Tuesday, November 12, 2019

  Actual Average Record
Temperature  
Mean Temperature 18 °F -  
Max Temperature 24 °F 55 °F 79 °F (1949)
Min Temperature 12 °F 35 °F 12 °F (2019)
Degree Days  
Heating Degree Days 47    
Moisture  
Dew Point 9 °F    
Average Humidity 66    
Maximum Humidity 80    
Minimum Humidity 48    
Precipitation  
Precipitation 0.00 in - - ()
Sea Level Pressure  
Sea Level Pressure 30.51 in    
Wind  
Wind Speed 13 mph (NNW)    
Max Wind Speed 20 mph    
Max Gust Speed 29 mph    
Visibility 10 miles    
Events      
Averages and records for this station are not official NWS values.
T = Trace of Precipitation, MM = Missing Value Source: NWS Daily Summary

Daily Weather History Graph

Daily Weather History Graph

Search for Another Location

Airport or City:

Astronomy

Nov. 12, 2019 Rise Set
Actual Time 6:25 AM CST 4:39 PM CST
Civil Twilight 5:57 AM CST 5:07 PM CST
Nautical Twilight 5:26 AM CST 5:39 PM CST
Astronomical Twilight 4:55 AM CST 6:10 PM CST
Moon 5:06 PM CST (11/12) 6:17 AM CST (11/12)
Length of Visible Light 11h 10m
Length of Day
10h 14m
Full, 100% of the Moon is Illuminated
Nov 12
Full
Nov 19
Last Quarter
Nov 26
New
Dec 4
First Quarter
Dec 11
Full

Hourly Weather History & Observations

Time (CST) Temp. Windchill Dew Point Humidity Pressure Visibility Wind Dir Wind Speed Gust Speed Precip Events Conditions
12:56 AM 23.0 °F 8.3 °F 16.0 °F 74% 30.39 in 10.0 mi North 19.6 mph 26.5 mph N/A   Overcast
1:51 AM 21.2 °F 6.8 °F 14.0 °F 74% 30.39 in 10.0 mi NNW 17.3 mph 25.3 mph 0.00 in   Overcast
1:56 AM 21.0 °F 6.6 °F 12.9 °F 71% 30.41 in 10.0 mi North 17.3 mph 28.8 mph 0.00 in   Overcast
3:56 AM 17.1 °F 2.0 °F 9.0 °F 71% 30.46 in 10.0 mi NNW 16.1 mph 21.9 mph N/A   Clear
4:56 AM 16.0 °F 1.7 °F 8.1 °F 71% 30.48 in 10.0 mi NNW 13.8 mph - N/A   Clear
5:56 AM 15.1 °F 0.5 °F 7.0 °F 70% 30.50 in 10.0 mi NNW 13.8 mph 19.6 mph N/A   Clear
6:56 AM 15.1 °F 3.3 °F 7.0 °F 70% 30.53 in 10.0 mi NNW 9.2 mph - N/A   Clear
7:56 AM 17.1 °F 4.3 °F 8.1 °F 68% 30.55 in 10.0 mi NNW 11.5 mph - N/A   Clear
8:56 AM 19.0 °F 5.0 °F 8.1 °F 62% 30.56 in 10.0 mi NNW 15.0 mph 19.6 mph N/A   Clear
9:56 AM 19.9 °F 7.3 °F 8.1 °F 60% 30.56 in 10.0 mi North 12.7 mph - N/A   Clear
10:56 AM 21.9 °F 9.2 °F 8.1 °F 55% 30.56 in 10.0 mi NNW 13.8 mph - N/A   Clear
11:56 AM 23.0 °F 11.7 °F 9.0 °F 55% 30.54 in 10.0 mi North 11.5 mph - N/A   Clear
12:56 PM 23.0 °F 11.1 °F 9.0 °F 55% 30.53 in 10.0 mi NNW 12.7 mph - N/A   Clear
1:56 PM 24.1 °F 13.1 °F 7.0 °F 48% 30.52 in 10.0 mi North 11.5 mph - N/A   Clear
2:56 PM 24.1 °F 13.7 °F 7.0 °F 48% 30.51 in 10.0 mi NW 10.4 mph - N/A   Clear
3:56 PM 23.0 °F 11.7 °F 8.1 °F 53% 30.52 in 10.0 mi NNW 11.5 mph - N/A   Clear
4:56 PM 19.0 °F 11.1 °F 8.1 °F 62% 30.53 in 10.0 mi NNW 5.8 mph - N/A   Clear
5:56 PM 16.0 °F 7.4 °F 8.1 °F 71% 30.55 in 10.0 mi NW 5.8 mph - N/A   Clear
6:56 PM 16.0 °F 8.8 °F 8.1 °F 71% 30.55 in 10.0 mi NNW 4.6 mph - N/A   Clear
7:56 PM 16.0 °F 7.4 °F 7.0 °F 68% 30.54 in 10.0 mi North 5.8 mph - N/A   Clear
8:56 PM 15.1 °F 7.7 °F 7.0 °F 70% 30.53 in 10.0 mi North 4.6 mph - N/A   Clear
9:56 PM 12.9 °F 6.9 °F 7.0 °F 77% 30.53 in 10.0 mi North 3.5 mph - N/A   Clear
10:56 PM 12.0 °F 5.9 °F 7.0 °F 80% 30.51 in 10.0 mi NW 3.5 mph - N/A   Clear
11:56 PM 12.0 °F 5.9 °F 7.0 °F 80% 30.49 in 10.0 mi NW 3.5 mph - N/A   Clear